TimeMDT,TemperatureF,Dew PointF,Humidity,Sea Level PressureIn,VisibilityMPH,Wind Direction,Wind SpeedMPH,Gust SpeedMPH,PrecipitationIn,Events,Conditions,WindDirDegrees,DateUTC
12:15 AM,66.2,14.0,13,29.85,10.0,South,5.8,-,N/A,,Clear,190,2013-05-19 06:15:00
12:35 AM,66.2,14.0,13,29.85,10.0,South,6.9,-,N/A,,Clear,190,2013-05-19 06:35:00
12:55 AM,69.8,14.0,12,29.85,10.0,SSW,6.9,-,N/A,,Clear,210,2013-05-19 06:55:00
1:15 AM,69.8,15.8,13,29.85,10.0,SW,8.1,-,N/A,,Clear,220,2013-05-19 07:15:00
1:35 AM,71.6,15.8,12,29.85,10.0,SW,9.2,-,N/A,,Clear,230,2013-05-19 07:35:00
1:55 AM,71.6,14.0,11,29.85,10.0,WSW,11.5,-,N/A,,Clear,240,2013-05-19 07:55:00
2:15 AM,69.8,14.0,12,29.84,10.0,WSW,11.5,-,N/A,,Clear,240,2013-05-19 08:15:00
2:35 AM,69.8,14.0,12,29.84,10.0,WSW,12.7,-,N/A,,Clear,240,2013-05-19 08:35:00
2:55 AM,71.6,14.0,11,29.84,10.0,WSW,16.1,-,N/A,,Clear,240,2013-05-19 08:55:00
3:15 AM,69.8,14.0,12,29.84,10.0,WSW,17.3,-,N/A,,Clear,250,2013-05-19 09:15:00
3:35 AM,68.0,14.0,12,29.84,10.0,WSW,13.8,-,N/A,,Clear,240,2013-05-19 09:35:00
3:55 AM,68.0,14.0,12,29.84,10.0,WSW,13.8,-,N/A,,Clear,240,2013-05-19 09:55:00
4:15 AM,68.0,14.0,12,29.84,10.0,WSW,12.7,-,N/A,,Clear,240,2013-05-19 10:15:00
4:35 AM,66.2,14.0,13,29.84,10.0,WSW,13.8,-,N/A,,Clear,240,2013-05-19 10:35:00
4:55 AM,66.2,14.0,13,29.84,10.0,WSW,12.7,-,N/A,,Clear,250,2013-05-19 10:55:00
5:50 AM,64.4,15.8,15,29.86,10.0,West,11.5,-,N/A,,Clear,270,2013-05-19 11:50:00
6:50 AM,68.0,17.6,15,29.89,10.0,WSW,11.5,-,N/A,,Clear,250,2013-05-19 12:50:00
7:50 AM,71.6,23.0,16,29.91,10.0,West,13.8,-,N/A,,Clear,260,2013-05-19 13:50:00
8:50 AM,77.0,30.2,18,29.91,10.0,WNW,13.8,-,N/A,,Clear,290,2013-05-19 14:50:00
9:50 AM,80.6,28.4,15,29.92,10.0,West,13.8,20.7,N/A,,Clear,280,2013-05-19 15:50:00
10:50 AM,82.4,24.8,12,29.90,10.0,West,15.0,27.6,N/A,,Clear,270,2013-05-19 16:50:00
11:50 AM,84.2,24.8,11,29.89,10.0,WSW,11.5,28.8,N/A,,Clear,250,2013-05-19 17:50:00
12:50 PM,86.0,21.2,9,29.86,10.0,SW,17.3,25.3,N/A,,Clear,230,2013-05-19 18:50:00
1:50 PM,86.0,21.2,9,29.84,10.0,SW,12.7,21.9,N/A,,Clear,220,2013-05-19 19:50:00
2:50 PM,86.0,19.4,9,29.82,10.0,SW,13.8,19.6,N/A,,Clear,230,2013-05-19 20:50:00
3:50 PM,87.8,19.4,8,29.79,10.0,SSW,18.4,24.2,N/A,,Clear,200,2013-05-19 21:50:00
4:50 PM,89.6,19.4,8,29.77,10.0,SW,20.7,31.1,N/A,,Clear,220,2013-05-19 22:50:00
5:45 PM,87.8,19.4,8,29.76,10.0,SW,21.9,28.8,N/A,,Clear,230,2013-05-19 23:45:00
6:15 PM,86.0,19.4,9,29.76,10.0,WSW,19.6,26.5,N/A,,Clear,250,2013-05-20 00:15:00
6:35 PM,86.0,19.4,9,29.77,10.0,SW,15.0,18.4,N/A,,Clear,220,2013-05-20 00:35:00
6:55 PM,86.0,19.4,9,29.77,9.0,SSW,11.5,-,N/A,,Clear,210,2013-05-20 00:55:00
7:15 PM,84.2,19.4,9,29.78,10.0,SW,13.8,21.9,N/A,,Clear,220,2013-05-20 01:15:00
7:35 PM,82.4,17.6,9,29.79,10.0,SW,10.4,-,N/A,,Clear,220,2013-05-20 01:35:00
7:55 PM,80.6,17.6,10,29.79,10.0,SW,10.4,-,N/A,,Clear,220,2013-05-20 01:55:00
8:15 PM,78.8,17.6,10,29.80,10.0,SW,10.4,-,N/A,,Clear,220,2013-05-20 02:15:00
8:35 PM,77.0,15.8,10,29.80,10.0,SSW,8.1,-,N/A,,Clear,210,2013-05-20 02:35:00
8:55 PM,75.2,15.8,11,29.81,10.0,SW,8.1,-,N/A,,Clear,220,2013-05-20 02:55:00
9:15 PM,71.6,15.8,12,29.82,10.0,SSW,5.8,-,N/A,,Clear,200,2013-05-20 03:15:00
9:35 PM,68.0,15.8,13,29.82,10.0,SSW,5.8,-,N/A,,Clear,200,2013-05-20 03:35:00
9:55 PM,66.2,15.8,14,29.83,10.0,SSW,5.8,-,N/A,,Clear,200,2013-05-20 03:55:00
10:15 PM,66.2,15.8,14,29.84,10.0,South,5.8,-,N/A,,Clear,170,2013-05-20 04:15:00
10:35 PM,64.4,14.0,14,29.84,10.0,SSW,5.8,-,N/A,,Clear,200,2013-05-20 04:35:00
10:55 PM,64.4,15.8,15,29.84,10.0,SSW,5.8,-,N/A,,Clear,200,2013-05-20 04:55:00
11:15 PM,62.6,15.8,16,29.83,10.0,SSW,6.9,-,N/A,,Clear,210,2013-05-20 05:15:00
11:35 PM,62.6,15.8,16,29.83,10.0,SSW,5.8,-,N/A,,Clear,200,2013-05-20 05:35:00
11:55 PM,62.6,15.8,16,29.83,10.0,SSW,5.8,-,N/A,,Clear,210,2013-05-20 05:55:00